星链-34227 (STARLINK-34227)

导读 | 豆包AI

STARLINK-34227是美国SpaceX公司星链(Starlink)项目的卫星,于2025年5月28日发射入轨。星链项目计划构建近地轨道卫星星座,为全球提供高速低延迟宽带互联网服务,已在全球六十余个国家和地区落地商用,该卫星将进一步扩充星链星座的服务容量,助力覆盖范围与通信能力提升。星链大规模卫星部署也引发了天文观测干扰、太空交通拥堵等领域的担忧。

基本信息
目录编号:
64178
目录名称:
STARLINK-34227
国际标识:
2025-113J
轨道中心:
EARTH
卫星名称:
星链-34227
卫星全名:
星链-34227 (STARLINK-34227)
卫星状态:
在轨 (已飞行290 天)
发射日期:
2025-05-28 UTC
国别 :
美国 (US)
星等 :
--
轨道信息
数据来源 国际轨道数据
星历时间: 2026-03-14T14:01:51+0800
11小时前
查看轨道信息
半长轴: 6853.279km
偏心率: 0.0001077
轨道倾角: 53.161°
近地点辐角 109.674°
升交点赤经 69.934°
平近点角 250.438°
近地点: 474.403km
远地点: 475.881km
周期: 94.104分钟
每日圈数: 15.302248
详细信息
固有亮度:
5
最大亮度:
2.5
卫星平台:
Starlink V1.0
覆盖范围:
全球
运营商:
太空探索技术公司
运营商所在国:
美国
制造商(研发单位):
太空探索技术公司
制造商所在国:
美国
使用方式:
暂无
卫星简介
Starlink 计划是 SpaceX 推出的全球卫星互联网项目,通过发射低轨道卫星,为全球尤其是偏远地区提供高速、低延迟的互联网服务。自 2019 年起,Starlink 已部署数千颗卫星,旨在缩小全球数字鸿沟,推动互联网普及。该项目还为军事、航空等行业提供通信支持,带来广泛经济效益。
2D轨道图
3D轨道图
轨道高度分析图
轨道倾角分析图
轨道综合分析图
查看轨道综合分析图